GEFSNGP_850_meantemp_024.txt.gz
Temperature
13 13 13 13 12 11 10 9 9 10 10 10 11 11 12 13 13 14 14 14 14 14 13 13 12 12 12 11 11 11 11 11 11 11 11 11 12 12 12 12 12 12 12 12
13 14 13 13 12 12 12 10 10 11 11 11 13 13 13 13 14 14 14 14 14 14 14 13 13 12 12 12 11 11 11 11 11 11 11 11 11 11 11 11 11 11 12 12
12 13 12 12 12 12 12 12 11 11 11 12 12 13 13 14 14 14 14 14 14 14 14 14 13 13 12 12 12 11 11 11 11 11 11 11 10 11 11 11 11 11 11 11
11 12 13 14 13 12 12 12 11 11 12 13 13 14 14 14 14 14 14 14 14 14 14 14 14 13 13 12 12 12 11 11 11 11 10 10 10 10 10 10 10 11 11 11
10 12 12 13 13 12 12 13 12 12 13 14 14 13 14 14 14 14 14 14 14 14 14 14 14 14 13 13 12 12 12 11 11 11 10 10 10 10 10 10 10 10 10 11
11 14 14 15 14 14 13 13 14 14 14 14 13 11 12 14 14 14 14 14 14 14 14 14 14 14 14 13 13 12 12 11 11 11 10 10 10 10 10 10 10 10 10 10
11 12 13 14 14 15 13 13 15 15 15 14 13 13 15 15 14 14 14 14 14 14 14 14 14 14 14 13 13 12 12 11 11 11 10 10 10 10 10 9 9 9 9 9
10 12 13 14 13 13 13 16 16 16 16 16 15 15 15 15 14 14 14 14 14 14 14 14 14 14 14 13 13 13 12 12 11 11 10 10 10 10 10 9 9 9 9 9
11 13 15 15 16 17 17 17 17 17 16 16 15 15 15 15 15 15 14 14 14 14 14 14 14 14 14 13 13 13 12 12 11 11 10 10 10 10 10 9 9 9 9 9
10 11 15 16 17 17 17 18 18 17 17 16 16 15 15 15 15 15 15 14 14 14 14 14 14 14 14 13 13 13 12 12 11 11 10 10 10 10 9 9 9 9 8 9
12 12 14 16 17 17 17 17 17 17 16 16 16 16 15 15 15 15 15 14 14 14 14 14 14 14 14 13 13 13 12 12 11 11 10 10 10 9 9 9 8 8 8 8
14 17 16 19 19 18 17 18 17 17 16 16 16 16 16 15 15 15 15 15 14 14 14 14 14 14 14 13 13 13 12 12 11 11 11 10 10 10 9 9 8 8 8 8
21 21 20 20 19 18 18 18 17 17 17 16 16 16 16 15 15 15 15 15 14 14 14 14 14 14 14 14 13 13 12 12 11 11 11 10 10 10 9 9 8 8 8 8
20 20 20 20 20 19 18 18 17 17 17 16 16 16 15 15 15 15 15 15 14 14 14 14 14 14 14 14 13 13 12 12 11 11 11 11 10 10 10 9 9 8 8 8
21 21 20 20 20 19 18 17 17 17 16 16 16 15 15 15 15 15 15 14 14 14 14 14 14 14 14 14 13 13 13 12 12 11 11 11 10 10 10 10 9 9 8 8
22 21 20 20 20 19 18 17 17 17 16 16 16 15 15 15 15 15 15 14 14 14 14 14 13 13 13 13 13 13 13 12 12 12 11 11 11 10 10 10 9 9 9 8
21 21 20 20 20 19 19 18 18 17 16 16 16 16 15 15 15 15 15 14 14 14 14 14 13 13 13 13 13 13 13 13 12 12 12 11 11 11 10 10 10 9 9 9
22 22 22 21 20 20 19 19 18 17 17 16 16 16 15 15 15 15 15 14 14 14 14 13 13 13 13 13 13 13 13 13 13 12 12 12 11 11 11 10 10 10 10 9
21 21 21 20 20 20 19 19 18 18 17 16 16 16 15 15 15 15 15 14 14 14 14 13 13 13 13 13 13 13 13 13 13 13 12 12 12 11 11 11 11 10 10 10
21 21 21 20 20 19 19 19 18 18 17 16 16 16 16 15 15 15 15 15 15 14 14 13 13 13 13 13 13 13 13 13 13 13 13 13 12 12 12 11 11 11 11 10
21 21 21 20 20 19 19 19 18 18 17 17 16 16 16 16 15 15 15 15 15 14 14 13 13 13 13 13 13 13 13 13 14 13 13 13 13 12 12 12 12 11 11 11
20 20 20 20 19 19 19 18 18 18 17 17 17 16 16 16 16 15 15 15 15 14 14 14 14 13 13 13 13 13 13 13 14 14 13 13 13 13 13 12 12 12 11 11
18 18 19 19 19 18 18 18 18 18 17 17 17 17 16 16 16 16 15 15 15 14 14 14 13 13 13 13 13 13 13 13 13 13 13 13 13 13 13 13 13 12 12 12
16 16 17 17 17 17 17 17 17 17 17 17 17 17 16 16 16 16 15 15 14 14 14 14 14 13 13 13 13 13 13 13 13 13 13 13 13 13 13 13 13 13 12 12
13 14 14 15 15 15 15 16 16 16 16 16 16 16 16 16 16 16 15 15 14 14 14 14 14 13 13 13 13 13 13 13 13 13 13 13 13 13 13 13 13 13 13 13
10 11 11 12 12 13 13 14 14 15 15 15 16 16 16 16 15 15 15 15 14 14 14 14 13 13 13 13 13 13 13 13 13 13 13 13 13 13 13 13 13 13 13 13
9 9 10 10 11 11 11 12 12 13 13 14 14 14 15 15 15 15 15 15 14 14 14 13 13 13 13 13 13 13 13 13 13 13 13 13 13 13 12 12 12 13 13 13

GEFSNGP_850_meantemp_030.txt.gz
Temperature
18 18 18 17 17 16 17 18 18 18 17 17 17 16 15 15 15 15 15 15 14 14 14 13 13 12 12 11 11 11 11 11 11 10 10 11 11 11 11 11 11 11 11 11
19 18 18 18 18 17 17 17 17 17 17 18 16 16 15 15 15 15 15 15 14 14 14 14 13 13 12 12 11 11 11 10 10 10 10 10 10 10 11 11 11 11 11 11
21 18 18 20 20 18 18 18 18 18 18 18 17 16 16 16 15 15 15 15 15 14 14 14 14 13 13 12 12 11 11 10 10 10 10 10 10 10 10 11 11 11 11 11
20 20 21 22 20 19 18 18 18 18 18 17 17 16 15 15 15 15 15 15 15 14 14 14 14 13 13 12 12 12 11 10 10 10 10 10 10 10 10 10 10 11 11 11
21 21 21 21 19 18 18 19 19 18 18 17 17 16 17 16 15 15 15 14 14 14 14 14 14 13 13 13 12 12 11 10 10 10 10 10 10 10 10 10 9 9 10 10
20 20 22 22 20 18 19 20 20 19 18 18 17 18 19 16 15 15 14 14 14 14 14 14 13 13 13 13 12 12 11 10 10 10 10 10 9 9 9 9 9 9 9 9
20 21 22 21 18 18 19 22 20 19 18 18 17 19 17 16 15 15 14 14 14 14 14 14 13 13 14 13 12 12 11 11 10 10 10 10 9 9 9 9 9 9 9 9
20 21 22 18 17 19 22 20 19 19 18 18 18 17 16 15 15 15 14 14 14 14 14 14 14 13 13 13 12 12 11 11 10 10 10 9 9 9 9 9 8 8 9 8
21 23 21 18 19 19 19 20 19 18 18 17 17 17 16 15 15 15 15 14 14 14 14 14 13 13 13 12 12 12 11 11 10 10 10 10 9 9 9 8 8 8 9 9
20 22 20 18 18 18 18 19 19 18 18 17 17 17 16 16 15 15 15 15 15 14 14 14 14 13 13 13 12 12 11 11 11 10 10 10 10 9 9 8 8 8 8 8
21 22 21 18 18 18 17 17 17 17 17 17 17 17 16 16 15 15 15 15 15 14 14 14 14 13 13 13 12 12 12 11 11 10 10 10 9 9 9 9 8 8 8 8
23 24 23 23 20 19 18 17 17 17 17 17 17 16 16 16 16 15 15 15 15 14 14 14 14 14 13 13 13 12 12 11 11 11 10 10 9 9 9 9 9 8 8 8
23 21 21 21 20 20 19 18 18 17 17 17 16 16 16 16 15 15 15 15 15 14 14 14 14 14 14 13 13 12 12 12 11 11 10 10 10 10 9 9 9 9 9 9
20 20 20 20 20 20 19 18 18 17 17 17 17 16 16 16 15 15 15 15 15 15 14 14 14 14 14 14 13 13 12 12 11 11 11 10 10 10 10 9 9 8 9 9
21 20 20 20 20 20 19 18 17 17 17 17 16 16 16 16 15 15 15 15 15 15 14 14 14 14 14 14 13 13 12 12 12 11 11 11 10 10 10 10 9 9 9 9
20 20 19 19 19 19 19 18 17 17 17 17 16 16 16 16 15 15 15 15 15 14 14 14 14 14 14 14 13 13 13 13 12 12 11 11 11 11 10 10 10 10 9 9
19 19 19 19 20 19 19 19 18 18 17 17 16 16 16 16 15 15 15 15 15 14 14 14 14 14 14 14 13 13 13 13 13 12 12 12 11 11 11 11 10 10 10 9
19 20 20 20 20 20 20 20 19 18 17 17 16 16 16 15 15 15 15 15 15 15 14 14 14 14 14 14 13 13 13 13 12 12 12 12 12 11 11 11 11 10 10 10
16 17 18 19 20 20 20 20 20 19 18 17 17 16 16 16 15 15 15 15 15 15 15 14 14 14 14 14 13 13 13 13 13 13 12 12 12 12 12 11 11 11 11 10
15 16 17 18 19 19 20 20 20 20 19 18 17 16 16 16 15 15 15 15 15 15 15 14 14 14 14 13 14 13 13 13 13 13 13 13 12 12 12 12 12 11 11 11
12 14 15 16 17 19 19 19 20 20 19 19 18 17 16 16 16 15 15 15 15 15 15 15 14 14 14 14 14 13 13 13 13 13 13 13 13 12 12 12 12 12 12 11
10 12 13 14 15 16 18 18 19 19 19 19 18 17 16 16 16 16 16 16 15 15 15 15 15 14 14 14 14 13 13 13 13 13 13 13 13 13 13 12 12 12 12 12
8 9 11 12 13 14 16 17 18 18 19 19 18 17 17 16 16 16 16 16 16 15 15 15 15 14 14 14 14 14 13 13 13 13 13 13 13 13 13 13 13 13 13 13
7 7 8 10 11 12 13 15 16 17 18 18 18 17 17 17 16 16 16 16 16 15 15 15 15 14 14 14 14 13 13 13 13 13 13 13 13 13 13 13 13 13 13 13
6 7 7 8 8 9 10 12 14 15 16 17 17 17 17 16 16 16 16 16 16 15 15 15 15 14 14 14 14 13 13 13 13 13 13 13 13 13 13 13 13 13 13 13
6 6 6 6 7 8 8 9 10 12 13 15 15 16 16 16 16 16 16 16 16 15 15 15 15 15 14 14 14 13 13 13 13 13 13 13 13 13 13 13 13 13 13 13
5 6 6 6 6 6 7 8 8 9 10 11 12 14 14 15 15 15 15 15 15 15 15 15 15 14 14 14 14 13 13 13 13 13 13 13 13 13 13 13 13 13 13 13

GEFSNGP_850_meantemp_036.txt.gz
Temperature
24 23 23 23 22 22 21 21 21 21 21 21 20 19 18 18 17 17 17 17 17 16 16 16 15 15 14 13 13 13 12 12 11 11 11 11 11 11 11 11 11 11 11 12
24 24 23 23 23 23 22 22 21 21 21 22 20 19 19 18 18 18 17 17 17 16 16 16 16 15 14 14 13 13 12 12 11 11 11 11 11 11 11 11 11 11 11 11
24 25 23 23 25 24 23 23 22 21 22 21 20 20 19 19 18 18 18 17 17 16 16 16 16 15 15 14 13 13 12 12 11 11 11 11 11 11 10 10 10 10 10 10
24 25 24 24 25 25 24 23 23 22 22 21 20 20 19 18 18 18 18 17 17 16 16 16 16 16 15 15 14 13 12 12 11 11 11 11 10 10 10 10 10 10 10 10
24 24 25 24 24 24 23 23 24 23 22 21 20 20 19 18 18 18 17 17 17 16 16 16 16 15 15 15 14 13 12 12 11 11 11 10 10 10 10 10 9 9 9 9
23 23 25 24 24 24 23 22 25 24 23 22 20 19 20 19 18 18 17 17 16 16 16 16 15 15 16 15 14 13 12 12 11 11 11 10 10 10 10 10 9 9 9 9
21 22 25 24 23 23 22 23 24 24 23 22 21 20 20 19 18 17 17 16 16 16 16 15 15 15 16 15 14 13 12 11 11 11 11 10 10 10 10 10 10 9 9 9
23 23 24 22 22 23 24 24 24 23 23 22 21 21 19 19 18 17 17 16 16 16 16 16 15 15 15 14 13 13 12 11 11 11 11 10 10 10 10 10 9 9 9 9
25 25 23 22 23 24 24 23 24 23 23 22 21 21 19 18 18 17 17 17 16 16 16 16 16 15 15 14 13 13 12 12 11 11 11 10 10 10 10 9 9 9 9 9
24 25 26 25 24 23 23 23 23 23 22 22 21 21 20 19 18 17 17 17 17 16 16 16 16 15 14 14 13 13 13 12 12 12 11 11 11 10 10 10 10 9 9 9
24 25 26 26 25 24 23 22 22 22 22 21 21 20 20 19 18 18 17 17 17 16 16 16 16 15 15 14 14 13 13 13 12 12 11 11 11 10 10 10 10 10 10 9
24 26 26 26 25 24 23 22 22 22 21 21 21 20 20 19 19 18 18 17 17 17 16 16 16 16 15 14 14 14 14 13 13 12 12 11 11 11 11 10 10 10 10 10
26 25 25 24 24 24 23 23 22 21 21 21 20 20 20 19 19 18 18 17 17 17 17 16 16 16 15 15 14 14 14 14 13 13 12 12 11 11 11 11 10 10 10 10
25 24 24 24 24 23 23 22 22 21 21 20 20 20 19 19 19 18 18 17 17 17 17 16 16 16 15 15 14 14 14 14 13 13 12 12 12 11 11 11 11 10 10 10
22 23 23 23 23 23 23 22 22 21 21 20 20 20 19 19 19 18 18 18 17 17 17 16 16 16 15 15 14 14 14 14 13 13 13 12 12 12 12 12 11 11 11 10
18 20 21 21 21 21 22 22 21 21 21 21 20 20 19 19 18 18 18 18 17 17 17 16 16 16 15 15 14 14 14 14 13 13 13 13 13 12 12 12 12 12 11 11
15 15 16 17 18 19 20 20 21 21 21 21 20 20 19 19 18 18 18 17 17 17 16 16 16 16 15 15 14 14 14 14 14 14 13 13 13 13 13 13 12 12 12 11
12 12 13 14 15 16 17 19 20 20 20 21 21 20 20 19 18 18 18 17 17 17 16 16 16 15 15 15 15 14 14 14 14 14 14 13 13 13 13 13 13 12 12 12
11 11 12 12 13 14 15 16 18 19 20 20 20 20 20 19 19 18 18 17 17 17 16 16 16 15 15 15 15 14 14 14 14 14 14 13 13 13 13 13 13 13 12 12
10 10 11 11 12 12 13 15 16 17 18 19 20 20 20 19 19 18 18 17 17 17 16 16 16 15 15 15 15 14 14 14 14 14 14 14 14 13 13 13 13 13 13 13
10 10 10 10 11 11 12 13 14 15 17 18 19 19 20 20 19 18 18 17 17 17 16 16 16 16 15 15 15 14 14 14 14 14 14 14 14 13 13 13 14 13 13 13
9 9 9 9 10 10 11 12 13 14 15 16 18 18 19 19 19 18 18 18 17 17 17 16 16 16 15 15 15 15 15 14 14 14 14 14 13 13 13 14 14 14 13 13
8 8 8 8 8 9 10 10 11 12 13 14 15 16 17 18 18 18 18 17 17 17 17 16 16 16 15 15 15 15 15 14 14 14 14 14 13 13 13 14 14 13 13 13
7 7 7 7 7 8 8 8 9 10 11 12 13 14 15 16 16 17 17 17 17 17 16 16 16 16 15 15 15 15 15 14 14 14 14 13 13 13 13 13 13 13 13 13
6 6 6 6 6 6 6 7 7 8 8 10 11 12 12 13 14 15 16 16 16 16 16 16 16 15 15 15 15 15 15 14 14 14 14 14 13 13 13 13 13 13 13 13
6 6 5 5 5 5 5 5 6 6 6 7 8 9 9 10 11 13 14 15 15 15 15 15 15 15 15 15 15 15 15 14 14 14 13 13 13 13 13 13 13 13 13 13
6 6 6 5 5 5 5 5 5 5 5 6 6 7 7 8 9 10 11 12 13 13 14 14 14 14 15 15 15 15 14 14 14 14 14 13 13 13 13 13 13 13 13 13

GEFSNGP_850_meantemp_042.txt.gz
Temperature
18 19 19 19 18 17 16 15 15 15 16 16 15 15 16 16 16 16 16 16 16 16 16 15 15 15 14 14 13 12 12 12 11 11 11 11 10 10 11 11 11 11 11 11
19 20 19 20 19 18 17 17 16 16 16 16 17 17 16 17 16 16 16 16 16 16 16 16 15 15 14 14 13 13 12 12 11 11 11 10 10 10 10 10 10 10 10 11
17 19 20 19 19 18 18 17 17 17 17 16 15 16 17 17 17 17 17 17 16 16 16 16 15 15 14 14 13 13 12 12 11 11 11 10 10 10 10 10 10 10 10 10
16 18 20 19 20 20 19 19 18 18 17 16 18 19 18 18 18 17 17 17 16 16 16 16 15 15 15 14 13 13 12 12 11 11 10 10 10 10 10 9 9 9 9 9
15 17 18 20 21 21 20 20 19 18 17 18 19 18 17 18 18 18 17 17 17 16 16 16 15 15 15 14 13 13 12 12 11 11 10 10 10 10 9 9 9 9 9 9
15 18 19 20 21 22 21 20 20 20 18 18 17 14 16 19 18 18 17 17 17 16 16 16 15 15 15 14 13 13 12 11 11 11 10 10 10 10 9 9 9 9 9 9
15 16 17 18 21 21 19 19 21 22 21 19 18 18 21 20 19 18 18 17 17 16 16 16 15 15 15 14 13 13 12 12 11 11 11 10 10 10 10 9 9 9 9 9
14 16 18 20 20 19 19 22 22 22 22 21 21 21 20 20 19 18 18 17 17 17 16 16 16 15 15 14 14 13 12 12 11 11 11 10 10 10 10 10 10 9 9 9
15 17 20 22 22 24 23 23 23 22 22 22 21 21 20 20 19 19 18 17 17 17 17 16 16 16 15 15 14 13 13 12 12 11 11 11 10 10 10 10 10 10 9 9
17 18 21 23 23 23 23 23 23 22 22 22 22 21 20 19 19 19 18 18 17 17 17 17 16 16 16 15 15 14 13 13 12 12 11 11 11 10 10 10 10 10 10 9
19 18 22 23 24 24 24 23 23 22 22 22 22 21 20 20 19 19 18 18 18 17 17 17 17 16 16 16 15 14 14 13 13 12 12 11 11 11 10 10 10 10 10 10
17 18 19 21 21 22 23 23 23 22 22 22 21 21 21 20 20 19 19 18 18 18 17 17 17 17 16 16 15 15 14 14 13 13 12 12 11 11 11 10 10 10 10 10
15 17 18 19 20 20 21 22 22 22 21 21 21 21 21 20 20 19 19 19 18 18 18 17 17 17 17 16 16 15 15 14 13 13 13 12 12 11 11 11 11 10 10 10
16 18 18 17 17 18 19 20 21 21 21 20 20 20 20 20 20 20 19 19 19 18 18 18 17 17 17 16 16 15 15 14 14 13 13 13 12 12 11 11 11 11 11 10
14 15 14 15 17 18 18 19 20 19 19 19 19 19 19 19 19 19 19 19 19 18 18 18 17 17 17 16 16 16 15 15 14 14 13 13 12 12 12 12 11 11 11 11
12 13 14 15 15 15 16 16 16 16 16 17 18 18 18 19 19 19 19 19 19 19 18 18 18 17 17 17 16 16 15 15 14 14 13 13 13 12 12 12 12 12 11 11
11 11 11 11 12 12 12 13 13 13 14 15 16 17 17 18 19 19 19 19 19 19 19 18 18 18 17 17 16 16 16 15 14 14 14 13 13 13 13 12 12 12 12 12
10 10 10 10 10 10 11 11 12 12 13 13 14 15 16 17 17 18 18 19 19 19 19 18 18 18 17 17 16 16 16 15 15 14 14 13 13 13 13 13 13 12 12 12
9 9 9 9 9 9 10 10 10 11 11 12 13 13 14 15 16 16 17 18 18 19 19 19 18 18 17 17 17 16 16 15 15 14 14 14 13 13 13 13 13 13 13 12
9 8 8 8 8 8 8 9 9 9 10 10 11 12 13 13 14 15 16 17 17 18 18 19 18 18 18 17 17 16 16 15 15 15 14 14 14 13 13 13 13 13 13 13
8 8 7 7 7 7 7 7 8 8 8 8 9 9 10 11 12 13 14 15 16 16 17 18 18 18 18 17 17 16 16 15 15 15 14 14 14 14 13 13 13 13 13 13
7 7 7 7 7 7 7 7 7 7 7 7 7 7 8 9 10 10 11 12 13 14 15 16 17 17 17 17 17 16 16 16 15 15 15 14 14 14 14 14 13 13 13 13
7 7 7 6 6 6 6 6 6 6 6 6 6 6 6 7 7 8 9 10 11 12 13 14 16 16 16 16 16 16 16 16 15 15 15 15 14 14 14 14 13 13 13 13
7 6 6 6 6 6 6 6 6 6 6 6 6 6 6 6 7 7 7 8 9 10 11 13 14 15 16 16 16 16 16 16 16 15 15 15 14 14 14 14 13 13 13 13
7 6 6 6 6 6 6 6 6 6 5 6 6 5 5 5 5 6 6 7 7 8 9 11 12 13 14 15 15 15 16 16 16 15 15 15 14 14 14 14 13 13 13 13
7 7 6 6 6 6 6 6 5 5 5 5 5 5 5 5 5 5 5 6 6 7 8 8 9 11 12 12 13 13 14 15 15 15 15 15 14 14 14 14 13 13 13 13
7 7 6 6 6 6 6 6 5 5 5 5 5 5 4 4 4 4 5 5 5 5 6 6 7 8 9 10 11 11 12 13 13 14 14 14 14 14 14 13 13 13 13 13

GEFSNGP_850_meantemp_048.txt.gz
Temperature
17 17 17 17 16 14 14 13 13 14 13 14 14 14 16 17 17 16 16 16 16 16 16 15 15 15 15 14 14 13 12 12 11 11 10 10 10 10 10 10 10 10 10 10
18 17 17 17 17 15 14 14 14 13 13 14 16 16 16 17 17 16 16 16 16 16 16 15 15 15 15 14 14 13 13 12 11 11 10 10 10 10 10 9 9 9 9 10
16 16 18 18 18 16 16 14 15 15 15 15 16 16 18 18 18 17 17 17 16 16 16 16 15 15 15 14 14 13 13 12 11 11 10 10 10 10 10 9 9 9 9 9
14 18 20 19 19 18 17 17 14 15 15 16 17 18 19 19 19 18 18 17 17 16 16 16 15 15 15 15 14 13 13 12 11 11 11 10 10 10 10 9 9 9 9 9
13 16 17 18 19 19 19 19 18 16 16 17 17 17 19 20 19 19 18 17 17 17 16 16 16 15 15 15 14 13 13 12 11 11 11 10 10 10 10 9 9 9 9 9
13 17 18 19 19 20 19 19 19 18 18 17 16 15 17 20 20 19 19 18 17 17 16 16 16 15 15 15 14 14 13 12 12 11 11 10 10 10 10 10 9 9 9 9
13 15 15 16 18 19 19 18 20 20 20 18 17 18 20 20 20 20 19 18 17 17 17 16 16 16 15 15 15 14 13 13 12 11 11 11 10 10 10 10 10 10 9 9
12 15 17 19 18 18 18 20 21 21 21 20 21 21 20 20 20 20 19 19 18 17 17 17 16 16 16 16 15 14 14 13 12 12 11 11 11 10 10 10 10 10 10 9
13 15 17 17 17 17 18 19 20 20 20 20 20 21 21 20 20 20 19 19 18 18 17 17 16 16 16 16 15 15 14 14 13 12 12 11 11 11 10 10 10 10 10 10
13 15 16 15 16 17 18 19 19 20 20 20 20 20 20 20 20 20 19 19 18 18 17 17 17 17 16 16 15 15 15 14 13 13 12 12 11 11 11 10 10 10 10 10
14 15 16 15 15 16 18 19 20 20 20 20 20 20 20 20 20 20 19 19 19 18 18 18 17 17 17 16 16 15 15 15 14 13 13 12 12 11 11 11 10 10 10 10
14 13 13 12 13 15 17 18 18 19 19 19 19 19 19 19 19 19 19 19 18 18 18 18 18 17 17 17 16 16 16 15 15 14 13 13 12 12 11 11 11 10 10 10
12 13 13 12 13 15 16 16 16 17 17 17 18 18 18 18 18 18 18 18 18 18 18 18 18 18 18 17 16 16 16 16 15 15 14 13 13 12 12 11 11 11 11 10
13 13 12 12 12 13 14 14 15 15 15 15 16 16 16 17 17 17 17 18 18 18 18 18 18 18 18 17 17 17 16 16 16 15 14 14 13 13 12 12 11 11 11 11
12 13 12 11 12 12 13 14 15 14 14 14 14 15 15 15 15 15 16 16 17 17 18 17 17 18 18 17 17 17 17 16 16 16 15 14 14 13 13 12 12 12 11 11
11 11 11 11 11 11 12 13 13 12 12 12 13 13 13 13 13 14 14 15 15 15 16 16 17 17 17 17 17 17 17 17 16 16 15 15 14 14 13 13 12 12 12 12
10 10 10 10 10 10 10 10 10 10 10 10 10 11 11 12 13 13 13 13 13 13 13 14 15 16 16 16 16 17 17 17 16 16 16 15 15 14 14 13 13 12 12 12
10 10 9 9 9 9 9 9 9 9 9 9 9 9 10 10 10 10 10 10 11 12 12 12 13 14 15 15 15 16 16 16 16 16 16 16 15 15 14 14 13 13 13 12
9 9 9 8 8 8 8 8 8 8 8 8 8 8 8 8 8 8 8 9 9 10 10 10 11 12 13 13 14 15 15 16 16 16 16 15 15 15 14 14 14 13 13 13
8 8 8 8 8 8 7 7 7 7 7 7 7 7 7 7 7 7 7 7 7 7 8 8 9 10 11 12 12 13 14 14 15 15 15 15 15 15 15 14 14 14 13 13
8 8 7 7 7 7 7 6 6 6 6 6 6 6 6 6 6 6 6 7 7 7 7 7 8 8 9 9 10 11 12 13 13 14 14 14 14 14 14 14 14 14 14 13
7 7 7 7 6 6 6 6 6 6 6 6 5 6 6 6 6 6 5 5 6 6 6 6 6 6 7 8 9 9 10 11 11 12 12 12 13 13 14 14 14 14 14 14
7 7 6 6 6 6 6 6 6 6 5 5 5 5 5 5 5 5 5 5 5 5 5 5 5 5 6 6 7 7 8 9 9 9 10 10 11 11 12 13 13 14 14 14
6 6 6 6 6 6 6 6 6 5 5 5 5 5 5 5 5 4 4 4 4 5 5 5 5 5 5 5 6 6 6 7 7 7 8 9 9 10 10 11 12 12 13 13
6 6 6 6 6 6 6 6 6 5 5 5 5 5 5 4 4 4 4 4 4 4 4 4 4 4 4 4 5 5 5 5 5 6 6 7 8 8 9 10 11 11 12 12
6 6 6 6 6 6 6 6 6 6 5 5 5 5 5 5 5 4 4 4 4 4 4 4 4 4 4 4 4 4 4 4 4 5 5 5 6 7 8 8 9 10 11 12
6 6 6 6 6 6 6 6 6 5 5 5 5 5 5 5 5 4 4 4 4 4 4 4 4 4 4 4 4 4 3 3 4 4 4 4 4 5 6 7 8 9 10 11

GEFSNGP_850_meantemp_054.txt.gz
Temperature
23 22 22 22 21 20 21 22 23 23 22 23 23 22 21 20 19 18 18 17 17 16 16 16 16 15 15 15 14 14 13 12 12 11 11 10 10 10 10 10 10 9 9 10
23 22 22 22 22 21 21 21 21 22 22 23 22 21 21 21 20 19 19 18 17 17 17 16 16 16 15 15 14 14 13 12 12 11 11 10 10 10 10 9 9 9 9 9
24 22 22 23 24 22 22 22 22 22 23 23 22 22 21 20 20 19 19 18 17 17 17 17 17 16 16 15 14 14 13 13 12 11 11 11 10 10 10 9 9 9 9 9
23 23 22 25 24 23 22 22 22 22 22 22 21 20 19 19 19 19 19 18 17 17 17 17 16 16 15 15 15 14 14 13 12 12 11 11 10 10 10 10 9 9 9 9
23 23 24 23 23 22 23 23 23 23 23 22 21 21 22 20 19 19 19 18 18 17 17 17 17 16 16 16 15 15 14 13 13 12 12 11 11 10 10 10 10 10 9 9
22 23 23 24 23 22 23 23 23 23 23 22 21 24 23 20 19 19 19 18 18 17 17 17 16 16 16 16 16 15 14 14 13 13 12 12 11 11 10 10 10 10 10 9
22 23 24 23 21 22 23 24 22 22 22 22 22 22 20 19 19 19 19 19 18 18 17 17 16 16 16 16 16 15 15 14 14 13 13 12 12 11 11 10 10 10 10 10
22 22 23 21 21 23 23 21 21 21 21 20 20 19 19 18 19 19 19 19 19 18 18 17 17 16 16 16 16 15 15 15 14 14 13 13 12 12 11 11 11 10 10 10
23 23 20 18 20 18 17 19 20 19 19 19 19 19 18 18 18 19 19 18 19 18 18 17 17 17 16 16 16 15 15 15 15 14 14 14 13 12 12 11 11 11 10 10
22 22 19 17 16 15 16 17 17 17 18 18 18 18 17 17 18 18 18 18 18 18 18 17 17 16 17 16 16 16 16 15 15 15 14 14 14 13 12 12 12 11 11 11
22 21 18 16 15 15 15 15 15 16 17 17 17 17 17 17 17 17 17 17 18 17 17 17 17 16 16 16 16 16 16 15 15 15 15 15 14 14 13 13 12 12 11 11
23 22 21 19 15 14 14 14 14 15 15 16 16 15 15 16 16 16 16 16 16 16 16 16 16 16 16 16 16 16 15 15 15 15 15 15 15 14 14 14 13 13 12 12
20 18 18 15 14 13 13 13 13 13 14 14 14 14 14 14 14 14 14 15 15 14 14 14 14 15 15 15 15 15 15 15 15 15 15 15 14 14 14 14 14 14 13 13
15 15 14 13 13 12 12 12 12 12 12 13 13 13 13 13 13 13 13 13 12 12 13 13 13 13 14 14 14 14 14 14 15 15 15 14 14 14 14 14 13 13 13 13
14 15 14 13 12 11 11 11 11 11 11 11 11 11 11 11 11 11 11 11 11 11 11 11 12 12 12 12 13 13 13 13 13 13 13 13 14 14 14 14 14 13 13 13
13 12 12 12 11 11 11 11 11 10 10 10 10 10 10 10 10 10 10 10 10 10 10 10 10 10 10 11 11 11 11 11 12 12 12 12 13 13 13 13 13 13 13 13
12 11 11 11 10 10 10 10 10 10 9 9 9 9 9 8 9 9 8 8 8 8 8 8 9 9 9 9 9 10 10 10 10 10 10 11 11 12 12 12 13 13 13 13
15 14 12 11 10 9 9 9 9 9 8 8 8 8 8 8 8 7 7 7 7 7 7 7 8 7 7 8 8 8 8 8 8 9 9 9 9 10 11 11 12 12 12 13
11 11 10 10 9 9 9 8 8 8 8 7 7 7 7 7 7 7 6 7 7 7 6 7 7 6 6 6 7 7 7 7 7 7 8 8 8 9 9 10 10 11 11 12
9 9 9 9 8 8 8 8 7 7 7 7 7 7 7 6 6 6 6 6 6 5 5 6 5 5 5 6 6 6 6 6 6 6 6 7 7 8 8 8 9 9 10 11
9 8 8 8 7 7 7 7 7 7 7 7 6 6 6 6 6 6 5 5 5 5 5 5 5 5 5 5 5 5 5 5 5 5 5 5 6 6 6 7 7 8 8 9
8 8 7 7 7 7 7 7 6 6 6 6 6 6 6 5 5 5 5 5 5 5 5 4 4 5 5 5 4 5 5 5 5 5 5 5 5 5 5 5 5 6 6 7
8 7 7 7 7 7 6 6 6 6 6 6 5 5 5 5 5 5 5 5 5 5 4 4 4 5 5 4 4 4 4 4 4 4 4 4 4 4 4 4 4 4 5 5
7 7 7 7 6 6 6 6 6 5 5 5 5 5 5 5 5 5 5 5 5 5 4 4 4 4 4 4 4 4 4 4 4 4 4 4 4 4 3 3 3 3 4 4
7 7 6 6 6 6 6 6 5 5 5 5 5 5 5 5 5 5 4 4 4 4 4 4 4 4 4 4 4 4 4 4 3 3 3 3 3 3 3 3 3 3 3 3
6 6 6 6 6 6 6 6 6 5 5 5 5 5 5 5 5 4 4 4 4 4 4 4 4 4 4 4 4 3 3 3 3 3 3 3 3 3 3 3 2 2 2 2
6 6 6 6 6 6 6 6 6 5 5 5 5 5 5 5 4 4 4 4 4 4 4 4 3 3 3 3 3 3 3 3 3 3 3 3 3 3 2 2 2 2 2 2

GEFSNGP_850_meantemp_060.txt.gz
Temperature
27 27 26 26 25 24 24 24 24 25 25 25 25 24 24 23 23 22 22 21 20 19 19 18 18 18 18 17 17 16 15 15 14 14 13 13 13 12 12 12 11 11 11 11
26 27 26 26 26 25 25 25 25 25 25 26 25 25 24 24 23 23 22 22 21 20 19 19 19 18 18 18 17 16 16 15 15 14 14 13 13 12 12 12 11 11 11 11
25 27 26 25 26 26 25 26 25 25 25 25 25 24 23 23 23 23 22 22 21 20 20 19 19 19 19 18 18 17 16 16 15 15 14 14 13 13 12 12 12 12 11 11
25 26 24 27 28 28 26 26 26 26 26 25 25 23 23 22 22 22 22 21 21 20 20 19 19 19 19 18 18 17 17 17 16 15 15 14 13 13 13 12 12 12 11 11
25 25 26 26 27 27 26 25 26 26 26 25 25 24 23 22 22 21 21 21 20 20 20 20 20 19 19 19 19 18 18 17 16 16 15 14 14 13 13 13 12 12 12 11
24 24 24 27 27 27 26 25 27 26 26 25 25 23 22 22 21 21 20 20 20 19 19 20 19 19 19 19 19 18 18 17 17 16 15 15 14 14 14 13 13 13 12 12
23 24 26 26 26 26 24 25 27 26 26 25 25 23 22 21 20 20 20 19 19 19 19 19 19 18 18 18 18 18 18 17 17 16 15 15 15 15 14 14 13 13 13 12
23 23 24 25 25 25 25 26 26 26 25 25 24 22 21 20 20 19 19 19 18 18 18 18 18 18 18 18 18 18 17 17 16 16 16 15 15 15 14 14 13 13 13 13
25 25 25 25 25 24 25 26 25 25 24 23 23 22 21 20 19 19 18 18 18 18 18 18 18 18 17 17 17 17 17 16 16 16 15 15 15 15 15 14 14 13 13 13
26 25 25 25 24 23 23 24 24 23 23 22 22 21 20 19 18 18 18 18 17 17 17 17 17 17 17 17 16 16 16 16 15 15 15 15 15 15 15 15 14 14 13 13
25 26 25 24 23 22 22 22 22 22 22 21 21 20 19 18 17 17 17 16 16 16 16 16 16 16 16 16 16 15 15 15 14 15 15 15 15 15 15 15 15 15 14 14
24 26 26 24 23 22 21 21 21 20 20 20 20 19 18 17 16 16 16 15 15 15 15 14 14 15 15 15 14 14 14 13 13 14 14 14 14 15 15 15 15 15 14 14
26 26 26 26 24 22 21 21 20 20 19 18 18 17 17 16 15 14 14 14 14 13 13 13 13 13 13 13 13 13 12 12 12 12 12 13 13 13 13 14 14 14 14 14
26 25 23 22 22 21 20 20 19 19 18 17 16 16 15 14 14 13 13 13 12 12 12 12 12 12 12 12 12 11 11 11 11 11 11 12 12 12 12 13 13 14 14 14
24 24 23 21 20 19 19 18 18 17 16 15 15 14 14 13 13 12 12 11 11 11 11 10 10 10 10 10 11 10 10 10 10 10 10 10 11 11 11 12 12 13 13 13
23 22 22 21 19 19 18 17 17 16 15 14 14 13 13 12 12 11 11 11 10 10 10 9 9 9 9 9 10 9 9 9 9 9 9 9 10 10 10 11 11 11 12 12
22 21 20 20 19 18 17 16 16 15 14 13 13 12 12 11 11 10 10 10 9 9 9 9 8 8 8 8 9 8 8 8 8 8 8 8 8 9 9 9 9 10 10 10
23 22 21 20 18 17 16 16 16 14 13 13 12 11 11 11 10 10 9 9 9 8 8 8 8 7 8 8 8 7 7 7 7 7 7 7 8 8 8 8 8 8 8 9
23 22 20 19 18 17 16 15 15 13 12 12 11 11 10 10 10 9 9 9 8 8 7 7 7 7 7 7 7 7 7 7 7 7 7 7 7 7 7 7 7 7 7 7
20 20 19 18 17 16 15 14 13 12 11 11 10 10 10 9 9 9 8 8 8 7 7 7 7 7 7 7 7 7 6 6 6 6 6 6 6 6 6 6 6 6 6 6
18 17 17 16 15 14 13 12 12 11 10 10 10 9 9 9 8 8 8 8 7 7 7 7 6 6 7 7 7 6 6 6 6 6 6 6 6 6 6 6 6 5 5 5
15 15 14 13 13 12 11 11 10 10 9 9 9 9 8 8 8 8 8 7 7 7 7 6 6 6 6 6 6 6 6 6 6 6 6 6 6 5 5 5 5 5 5 5
13 13 12 12 11 11 10 10 9 9 9 9 8 8 8 8 8 8 7 7 7 7 7 6 6 6 6 6 6 6 6 6 6 6 6 5 5 5 5 5 5 5 4 4
12 11 11 11 10 10 10 9 9 8 8 8 8 8 8 7 7 7 7 7 7 7 6 6 6 6 6 5 5 5 5 5 5 5 5 5 5 4 4 4 4 4 4 4
11 11 10 10 10 10 9 9 8 8 8 7 7 7 7 7 7 7 7 7 6 6 6 6 5 5 5 5 5 5 5 5 5 5 4 4 4 4 4 4 4 4 4 3
10 10 10 10 10 9 9 8 8 7 7 7 7 7 7 7 7 6 6 6 6 6 6 6 5 5 5 5 5 5 5 5 4 4 4 4 4 4 3 3 3 3 3 3
10 9 9 9 9 9 9 8 8 8 8 7 7 7 7 7 7 6 6 6 6 6 6 5 5 5 5 5 5 4 4 4 4 4 3 3 3 3 3 2 2 2 2 2